AirNav   Pilot Hours Calculator
 
 903 users online  

KJRB Downtown Manhattan/Wall Street Heliport
New York, New York, USA

GOING TO NEW YORK?


FAA INFORMATION EFFECTIVE 02 JANUARY 2020

Location

FAA Identifier: JRB
Lat/Long: 40-42-04.3690N 074-00-32.5020W
40-42.072817N 074-00.541700W
40.7012136,-74.0090283
(estimated)
Elevation: 7 ft. / 2 m (estimated)
Variation: 13W (2010)
From city: 3 miles SE of NEW YORK, NY
Time zone: UTC -5 (UTC -4 during Daylight Saving Time)
Zip code: 10004

Heliport Operations

Heliport use: Open to the public
Activation date: 11/1972
Control tower: no
ARTCC: NEW YORK CENTER
FSS: NEW YORK FLIGHT SERVICE STATION
NOTAMs facility: ISP (NOTAM-D service available)
Attendance: SAT 0700-1900, ALL SUN 0700-1700, ALL MON-FRI 0700-2200
ATTENDANCE EARLY HRS HOL & WKND SKEDS REQUIRES 24 HRS NOTICE CALL 212-248-7240.
Wind indicator: lighted
Segmented circle: no
Lights: SS-SR
Landing fee: yes

Heliport Communications

CTAF/UNICOM: 123.05
WX AWOS-3PT: 128.175 (212-425-1534)
NEW YORK APPROACH: 120.8
NEW YORK DEPARTURE: 120.8
WX ASOS at EWR (7 nm W): PHONE 973-621-2892
WX ASOS at LGA (8 nm NE): PHONE 718-672-6317
WX ASOS at TEB (9 nm N): 132.025 (201-393-0855)
WX ASOS at JFK (11 nm E): 128.725 (718-656-0956)
WX AWOS-3 at LDJ (12 nm SW): 124.025 (908-862-7383)
WX ASOS at CDW (16 nm NW): 135.5 (973-575-4417)
WX AWOS-3 at MMU (19 nm W): PHONE 973-290-0135

Nearby radio navigation aids

VOR radial/distance  VOR name  Freq  Var
CRIr327/7.5CANARSIE VOR/DME112.3011W
LGAr244/8.1LA GUARDIA VOR/DME113.1012W
TEBr176/9.2TETERBORO VOR/DME108.4011W
JFKr303/11.6KENNEDY VOR/DME115.9012W
COLr027/24.4COLTS NECK VOR/DME115.4011W
DPKr272/32.5DEER PARK VOR/DME117.7012W
SAXr143/32.6SPARTA VORTAC115.7011W
SBJr088/34.1SOLBERG VOR/DME112.9010W
RBVr047/37.3ROBBINSVILLE VORTAC113.8010W
BWZr110/37.4BROADWAY VOR/DME114.2011W
CMKr221/39.8CARMEL VOR/DME116.6012W

 
NDB name  Hdg/Dist  Freq  Var  ID
TORBY150/8.421412WTE - .
CHATHAM110/19.325413WCAT -.-. .- -
BABYLON287/28.527514WBBN -... -... -.

Heliport Services

Fuel available: A
Airframe service: NONE
Powerplant service: NONE
Bottled oxygen: NONE
Bulk oxygen: NONE

Runway Information

Helipad H1

Dimensions: 62 x 62 ft. / 19 x 19 m
Surface: concrete, in good condition
Weight bearing capacity: 
Single wheel: 50.0
Runway edge lights: PERI
Latitude: 40-42.072817N
Longitude: 074-00.541700W
Elevation: 7.0 ft.
Traffic pattern: leftleft
Markings: basic, in good condition

Heliport Ownership and Management from official FAA records

Ownership: Publicly-owned
Owner: ECONOMIC DEVELOPMENT CORP
110 WILLIAM ST
NEW YORK, NY 10038
Phone 212-248-7240
Manager: MR. BRIAN TOLBERT
PIER 6 EAST RIVER
NEW YORK, NY 10004
Phone 212-248-7240
SAKER AVIATION

Heliport Operational Statistics

Aircraft operations: avg 86/day *
85% air taxi
14% transient general aviation
<1% military
* for 12-month period ending 30 April 2018

Additional Remarks

NO FLTS OR APCHS OVER FDR DRIVE; TWO-WAY RDO RQRD.
BIRDS ON & INVOF HELIPORT.
BOATS MAY NAVIGATE IN WATER ALONG HELIPORT PIER.
13 HELICOPTER PARKING SPACES WITH ADDITIONAL TRANSIENT POSITIONS AVBL. FIRE STAND PIPES ON SITE.
FOR CD CTC NEW YORK APCH AT 516-683-2849.

Instrument Procedures

NOTE: All procedures below are presented as PDF files. If you need a reader for these files, you should download the free Adobe Reader.

NOT FOR NAVIGATION. Please procure official charts for flight.
FAA instrument procedures published for use from 02 January 2020 at 0901Z to 30 January 2020 at 0900Z.

 
Departure Procedures
JEDIL TWO (COPTER) (RNAV)   download (82KB)
NOTE: Special Take-Off Minimums/Departure Procedures apply   download (592KB)

Other nearby airports with instrument procedures:

6N5 - East 34th Street Heliport (3 nm NE)
KJRA - West 30th St Heliport (3 nm N)
KEWR - Newark Liberty International Airport (7 nm W)
KLGA - LaGuardia Airport (8 nm NE)
KTEB - Teterboro Airport (9 nm N)
KJFK - John F Kennedy International Airport (11 nm E)
KLDJ - Linden Airport (12 nm SW)
KCDW - Essex County Airport (16 nm NW)
KMMU - Morristown Municipal Airport (19 nm W)
 
Loc | Ops | Rwys | IFR | FBO | Links
Com | Nav | Svcs | Stats | Notes
Area around KJRB (Downtown Manhattan/Wall Street Heliport)
 
Road maps at: MapQuest Bing Google
 
Aerial photo
WARNING: Photo may not be current or correct
Aerial photo of KJRB (Downtown Manhattan/Wall Street Heliport)
Photo by New York Jet Charter Flights by GiveJet jetcharterrewards.com/newyork.htm
Photo taken 01-May-2014
looking northeast.

Do you have a better or more recent aerial photo of Downtown Manhattan/Wall Street Heliport that you would like to share? If so, please send us your photo.

 
Sectional chart

 
Airport distance calculator
Flying to Downtown Manhattan/Wall Street Heliport? Find the distance to fly.

From to KJRB

Sunrise and sunset
Times for 24-Jan-2020
 Local
(UTC-5)
 Zulu
(UTC)
Morning civil twilight06:4411:44
Sunrise07:1412:14
Sunset17:0322:03
Evening civil twilight17:3222:32

Current date and time
Zulu (UTC)  24-Jan-2020 06:35:55
Local (UTC-5)  24-Jan-2020 01:35:55
 
METAR
KJRB 240556Z AUTO 26004KT CLR 04/M03 A3035 RMK AO2 SLP279 T00441028 10056 20044 58006 PWINO
KNYC 
5nm N 
240551Z AUTO 10SM CLR 05/M04 A3036 RMK AO2 SLP273 T00501039 10072 20050 58005 $
KEWR 
7nm W 
240551Z 00000KT 10SM FEW035 BKN170 OVC250 03/M03 A3035 RMK AO2 SLP276 T00331033 10067 20028 58005
KLGA 
8nm NE 
240551Z 00000KT 10SM OVC180 05/M03 A3034 RMK AO2 SLP274 T00501028 10067 20044 58006
KTEB 
10nm N 
240551Z 00000KT 9SM CLR 02/01 A3034 RMK AO2 SLP273 T00220011 10061 20017 58006
KJFK 
12nm E 
240551Z 00000KT 10SM FEW018 OVC190 02/00 A3036 RMK AO2 SLP279 T00220000 10044 20022 58007 $
KLDJ 
12nm SW 
240615Z AUTO 00000KT 10SM CLR 03/M04 A3036 RMK AO2 T00261042
KCDW 
17nm NW 
240553Z AUTO 00000KT 10SM CLR 01/M05 A3035 RMK AO2 SLP284 T00061050 10033 20006 58005
KMMU 
19nm W 
240615Z AUTO 00000KT 10SM BKN034 M01/M03 A3034 RMK AO2
TAF
KEWR 
7nm W 
240524Z 2406/2512 VRB03KT P6SM SCT180 BKN250 FM241500 06004KT P6SM BKN200 FM242000 07006KT P6SM FEW150 SCT250 FM250600 07008KT P6SM SCT006 BKN020 FM251000 04011KT 5SM BR VCSH SCT006 OVC009
KLGA 
8nm NE 
240524Z 2406/2512 19003KT P6SM SCT180 BKN250 FM241400 04005KT P6SM BKN200 FM241900 07007KT P6SM BKN200 FM250600 07009KT P6SM SCT006 BKN015 FM251000 06011KT 6SM BR VCSH SCT006 OVC009
KTEB 
10nm N 
240524Z 2406/2512 00000KT P6SM SCT180 BKN250 FM241600 06003KT P6SM BKN200 FM242100 11005KT P6SM FEW150 SCT250 FM250300 07006KT P6SM SCT120 BKN200 FM250800 05007KT P6SM SCT005 OVC025 FM251100 03008KT 6SM BR VCSH SCT005 OVC010
KJFK 
12nm E 
240524Z 2406/2512 19003KT P6SM SCT180 BKN250 FM241400 06005KT P6SM BKN200 FM241800 10007KT P6SM FEW120 BKN200 FM250500 07010KT P6SM SCT090 BKN120 FM250600 07010KT P6SM SCT006 BKN015 FM251000 09010G18KT 4SM BR VCSH SCT005 OVC010
NOTAMs
Click for the latest NOTAMs
NOTAMs are issued by the DoD/FAA and will open in a separate window not controlled by AirNav.

 

 
 

FBO, Fuel Providers, and Aircraft Ground Support

  
 Business Name 
 
 Contact 
 
 Services / Description 
 
Fuel Prices
 
Comments
  
 Saker Aviation Services, Inc.
212-248-7240
212-248-7241
[web site]
[email]

Like us on facebook Follow us on twitter
Airport management, Aviation fuel, Aircraft parking (ramp or tiedown), Passenger terminal and lounge, Aerial tours / aerial sightseeing, Aircraft charters, ...

More info about Saker Aviation Services, Inc.
Avfuel
Jet A
FS $8.39 
 Updated 25-Dec-2019
 
   write
FS=Full service
Update Fuel Prices
 

Would you like to see your business listed on this page?

 If your business provides an interesting product or service to pilots, flight crews, aircraft, or users of the Downtown Manhattan/Wall Street Heliport, you should consider listing it here.  To start the listing process, click on the button below
 
Add a business
 

Other Pages about Downtown Manhattan/Wall Street Heliport

www.panynj.gov/...
www.downtownmanhattanheliport.com
 
Update a link
 
Copyright © AirNav, LLC. All rights reserved. Privacy Policy  Contact